{"data":{"norad_id":57826,"intl_designator":"2023-138U","name":"STARLINK-30422","alt_names":[],"object_type":"PAYLOAD","status":"ACTIVE","operator":null,"country":"US","launch_date":"2023-09-09","launch_site_code":"AFETR","launch_vehicle":null,"mission":null,"orbit_class":"UNKNOWN","rcs_meters":null,"size_class":null,"mass_kg":null,"dimensions":null,"purposes":["comms"],"wikipedia_slug":null,"has_3d_model":false,"image_url":null,"decayed_at":null,"tle_current":{"epoch":"2026-09-20T21:46:57.671616Z","epoch_age_seconds":99433,"freshness":"FRESH","line1":"1 57826U 23138U   26263.90761194  .00000084  00000+0  12559-4 0  9998","line2":"2 57826  43.0033 211.7566 0000781 275.9641  84.1121 15.27577851168584","mean_motion":15.27577851,"eccentricity":7.81e-5,"inclination_deg":43.0033,"raan_deg":211.7566,"arg_perigee_deg":275.9641,"mean_anomaly_deg":84.1121,"bstar":1.2559e-5,"rev_number":16858,"period_min":94.266881328328,"perigee_km":482.51967178963,"apogee_km":483.59139006296,"semimajor_km":6861.1925309263,"source":"CELESTRAK","updated_at":"2026-09-21T09:00:33.710448Z"}}}